Погода в Игарке

Погода в Игарке : погода сейчас, прогноз погоды и архив. Всё, что Вы хотите узнать о погоде в Игарке!

Поиск расширенной информации на нашем сайте:

Другие новости

Новости СМИ2

Главная страница сайта

Новости сайта

03.07.2017

Напоминаем, что на нашем специализированном сайте Метеоцентр.Азия вы можете получить высокодетализированные автоматические прогнозы погоды по пунктам России, СНГ и мира в авиационном формате (включающие направление и скорость ветра, видимость, явления погоды, количество и форму облачности, нижнюю и верхнюю границу облачности).

Рекомендуем: Доставка канапе и фуршетных блюд по Москве catering.su.

Погода в Игарке - сегодня

Время (UTC), дата Ветер
(°,м/с) 
Видим.   Явления Облачность Т
(°С)
Тd
(°С)
f(%) Тe
(°С)
Pmin
(гПа)
dP
(гПа)
Po
(мм)
O2
(г/м3)
Тmin Tmax R s Состояние
почвы
21 15.06.18 090 (В) 20000 м    3/1 600 м средняя, верхняя 
[Cu hum|Ac cuf|Ci fib]
+19.2 +10.1 56 +21  1009.5  755  282           
00 16.06.18 100 (В) 20000 м    ясно 
+23.4 +11.8 48 +27  1010.2  0.8  755  278  +19         
03 16.06.18 190 (Ю) 20000 м    1/0 средняя 
[Ac trans]
+25.7 +8.8 34 +26  1011.1  -0.9  756  277           
06 16.06.18 160 (Ю) 20000 м    3/0 верхняя 
[Ci fib]
+28.2 +10.6 33 +30  1011  -0.1  756  274           
09 16.06.18 130 (ЮВ) 5{10}  20000 м    3/0 верхняя 
[Ci fib]
+29.4 +10.2 30 +31  1010.5  -0.5  755  273           
12 16.06.18 130 (ЮВ) 4{10}  20000 м    1/0 верхняя 
[Ci fib]
+29 +8.2 27 +29  1010.3  -0.2  755  274    +30.2       
15 16.06.18 050 (СВ) 20000 м    3/0 верхняя 
[Ci fib]
+26.4 +8.9 33 +26  1010.7  0.4  756  276           
18 16.06.18 040 (СВ) 20000 м    3/0 верхняя 
[Ci fib]
+15.5 +11 75 +18  1011.1  0.2  756  286           
21 16.06.18 010 (С) 20000 м    3/0 верхняя 
[Ci fib]
+15.1 +9.8 71 +17  1011.3  0.2  756  287           
00 17.06.18 тихо ()   20000 м    1/0 верхняя 
[Ci fib]
+21.9 +10.9 50 +24  1011.1  756  280  +14.1         
03 17.06.18 120 (ЮВ) 20000 м    1/0 верхняя 
[Ci fib]
+26.9 +10.6 36 +29  1010.9  -0.2  756  275           
06 17.06.18 210 (ЮЗ) 20000 м    3/0 верхняя 
[Ci fib]
+30.5 +7.7 24 +31  1009.8  -1.1  755  272           
09 17.06.18 210 (ЮЗ) 20000 м    1/1 600 м 
[Cu hum]
+31.2 +6.9 22 +31  1008.8  -1  754  272           
12 17.06.18 070 (В) 20000 м    4/0 средняя, верхняя 
[Ac trans|Ci fib]
+29.9 +7.8 25 +30  1008.4  -0.4  754  273    +32       
15 17.06.18 020 (С) 20000 м    9/3 1500 м средняя 
[Sc|Ac trans]
+23.8 +10.2 42 +25  1008.2  -0.2  754  278           
18 17.06.18 350 (С) 20000 м    6/3 600 м средняя 
[Sc|Ac trans]
+17.1 +11.4 69 +21  1008.6  0.2  754  284           
21 17.06.18 300 (СЗ) 20000 м    6/0 средняя, верхняя 
[Ac trans|Ci fib]
+14 +10.2 78 +16  1008.2  -0.3  754  287           
00 18.06.18 180 (Ю) 20000 м    8/0 средняя, верхняя 
[Ac trans|Ci fib]
+18.6 +12.5 68 +25  1008.9  0.7  754  282  +12.9         
03 18.06.18 160 (Ю) 20000 м    8/3 600 м кучево-дожд., средняя, верхняя 
[Cb cap|Ac cuf|Ci ing]
+22 +14.6 63 +30  1008.7  -0.1  754  278           
06 18.06.18 160 (Ю) 20000 м    9/3 600 м кучево-дожд., средняя, верхняя 
[Cb cap|Ac cuf|Ci ing]
+23.2 +15.2 61 +32  1008  -0.7  754  277           
09 18.06.18 150 (ЮВ) 20000 м    9/4 600 м кучево-дожд., средняя, верхняя 
[Cb cap|Ac cuf|Ci ing]
+25 +13.2 48 +31  1007.2  -0.8  753  275           
12 18.06.18 210 (ЮЗ) 20000 м    9/4 600 м кучево-дожд., средняя 
[Cb cap|Ac cuf]
+21.4 +13.2 60 +27  1006.9  -0.3  753  279    +26.2       
15 18.06.18 270 (З) 20000 м    9/6 600 м кучево-дожд., средняя 
[Cb cap|Ac cuf]
+18.2 +13.6 75 +26  1006.9  -0.1  753  282           
18 18.06.18 030 (СВ) 20000 м    8/3 600 м средняя 
[Sc diur, vesp|Ac cuf]
+15 +13.6 91 +22  1006.6  -0.3  752  285           
21 18.06.18 190 (Ю) 20000 м    6/3 600 м средняя 
[Sc|Ac trans]
+14.3 +12.8 91 +21  1006.6  752  286           
Время (UTC), дата Ветер
(°,м/с) 
Видим.   Явления Облачность Т
(°С)
Тd
(°С)
f(%) Тe
(°С)
Pmin
(гПа)
dP
(гПа)
Po
(мм)
O2
(г/м3)
Тmin Tmax R s Состояние
почвы

Для получения пояснительной информации подведите курсор к названию столбца.

ПОГОДА в Игарке - архив

Всё, что Вы хотите узнать о погоде в Игарке - удобно и подробно!

Выберите нужную дату (начиная с 1 января 2015* года) и нажмите кнопку "Найти".
Будут отображены архивные сводки погоды по пункту Игарка, начиная с указанной даты.


Отображать данные в формате CSV (для использования в таблицах Excel)


Внимание! Наш архив погоды предназначен исключительно для личного некоммерческого использования в познавательных целях. Если Вам необходимы официальные справки о состоянии погоды (для производственных, юридических, коммерческих и т.п. целей), обращайтесь в органы Росгидромета.

*Примечание: данная дата относится к архиву по метеостанциям СССР (Россия, СНГ, Балтия).
Архив по метеостанциям Зарубежной Европы и Азии (кроме Китая) хранится 10 дней, по другим регионам земного шара (Китай, Африка, Америка, Австралия, Океания) - 1 день.

Игарка - район местоположения метеостанции


Название, широта, долгота, высота метеостанции:
Игарка 67.5°ш. 86.4°д. 25 м над ур. моря [Российская Федерация]

Дополнительная информация

В oтличие oт бoльшинства пoгoдных сайтoв мы публикуем пoдрoбную метеoинфoрмацию в детальнoм прoфессиoнальнoм фoрмате.

Характеристики температуры и влажнoсти вoздуха измеряются на высoте 2 м в тени вдали oт зданий и деревьев.
Скoрoсть ветра измеряется на высoте 10 м (на урoвне рoста челoвека скoрoсть ветра ниже в 1.5-2 раза). Если метеoстанция нахoдится в гoрoде или в лесу, тo скoрoсть ветра занижена на 2-4 м/с пo сравнению с oткрытым местoм. Скoрoсть ветра над акватoриями крупных рек и oзёр, а также на вершинах хoлмoв на 2-5 м/с выше, чем в oбычных услoвиях.
Атмoсфернoе давление в разных тoчках местнoсти мoжет значительнo oтличаться oт давления на метеoстанции, в зависимoсти oт услoвий рельефа (при пoдъёме на 10 м давление пoнижается примернo на 1 мм рт.ст.).